To NAV CANADA Home Page Login to a new session Search on AWWS site Feedback and Comments Disclaimer Vers la page française équivalente Tips FAQ What's new on the site To the Forecasts and Observations / NOTAM section To "File a Flight Plan" website Publications and other links Update of the User's profile FIC Telephone Numbers My Weather Data Folder Route Weather Data Regional Weather Data Local Weather Data To the Forecasts and Observations / NOTAM section
Request Generated 05/25/2017 at 01:05:33 UTC . Weather information available at that time is displayed.

METAR/TAF

UMIUJAQ/QC    

LWIS CYMU 250100Z AUTO VRB02KT 04/M05 A2994=
LWIS CYMU 250000Z AUTO 35006KT 05/M05 A2994=
LWIS CYMU 242300Z AUTO 34005KT 06/M05 A2994=

CYMU - No TAF is issued for this station

Your time UTC time
Weather data provided by Environment Canada and NAV CANADA